ANA371 RJGG-RJFU

Flight info

Callsign ANA371
Flight time N/A
Altitude 28000
Route HIKNE Y207 ARASI Y20 KAMMY Y204 OHGIE
Aircraft B738/M-SDE2E3FGHIRWXY/LB1

Departure

Time N/A
Airport Chubu Centrair International Airport (RJGG)

Arrival

Time 2026-04-24 14:21
Airport Nagasaki Airport (RJFU)
Time Latitude Longitude Altitude Speed Heading
2026-04-24 13:57 34.01810 131.20501 38083 ft 372 kts 246°
2026-04-24 13:57 34.00640 131.17710 38075 ft 371 kts 246°
2026-04-24 13:58 33.98319 131.12151 37702 ft 371 kts 246°
2026-04-24 13:58 33.97171 131.09401 37153 ft 364 kts 246°
2026-04-24 13:58 33.96042 131.06700 36531 ft 359 kts 246°
2026-04-24 13:59 33.94946 131.04080 36041 ft 351 kts 246°
2026-04-24 13:59 33.93869 131.01503 35797 ft 337 kts 246°
2026-04-24 13:59 33.92827 130.99006 35208 ft 332 kts 245°
2026-04-24 13:59 33.91794 130.96530 34575 ft 330 kts 246°
2026-04-24 14:00 33.90772 130.94065 33928 ft 327 kts 245°
2026-04-24 14:00 33.89758 130.91630 33239 ft 324 kts 245°
2026-04-24 14:00 33.88745 130.89212 32558 ft 322 kts 245°
2026-04-24 14:00 33.87741 130.86817 31861 ft 320 kts 245°
2026-04-24 14:01 33.86732 130.84409 31180 ft 325 kts 246°
2026-04-24 14:01 33.85690 130.81914 30441 ft 346 kts 246°
2026-04-24 14:01 33.84588 130.79264 29592 ft 372 kts 246°
2026-04-24 14:01 33.83393 130.76408 28625 ft 386 kts 246°
2026-04-24 14:02 33.82191 130.73556 27664 ft 380 kts 246°
2026-04-24 14:02 33.81003 130.70740 26729 ft 377 kts 246°
2026-04-24 14:02 33.79822 130.67939 25893 ft 373 kts 246°
2026-04-24 14:02 33.78659 130.65181 25201 ft 368 kts 246°
2026-04-24 14:03 33.77495 130.62415 24522 ft 379 kts 246°
2026-04-24 14:03 33.76281 130.59523 23818 ft 408 kts 245°
2026-04-24 14:03 33.74980 130.56432 22880 ft 413 kts 245°
2026-04-24 14:03 33.73698 130.53406 22118 ft 400 kts 245°
2026-04-24 14:04 33.72454 130.50468 21378 ft 390 kts 245°
2026-04-24 14:04 33.71241 130.47602 20688 ft 381 kts 245°
2026-04-24 14:04 33.70051 130.44790 20014 ft 375 kts 245°
2026-04-24 14:04 33.68815 130.42045 19315 ft 373 kts 239°
2026-04-24 14:05 33.67131 130.39609 18643 ft 390 kts 227°
2026-04-24 14:05 33.65055 130.37463 17897 ft 395 kts 218°
2026-04-24 14:05 33.62669 130.35795 16832 ft 398 kts 210°
2026-04-24 14:05 33.60221 130.34316 16125 ft 389 kts 208°
2026-04-24 14:06 33.57925 130.32953 15485 ft 382 kts 208°
2026-04-24 14:06 33.55488 130.31499 14825 ft 378 kts 208°
2026-04-24 14:06 33.53159 130.30092 14222 ft 374 kts 208°
2026-04-24 14:06 33.50816 130.28664 13543 ft 385 kts 208°
2026-04-24 14:07 33.48404 130.27186 12837 ft 392 kts 208°
2026-04-24 14:07 33.45997 130.25709 12153 ft 384 kts 208°
2026-04-24 14:07 33.43657 130.24274 11767 ft 368 kts 208°
2026-04-24 14:07 33.41470 130.22933 11604 ft 349 kts 208°
2026-04-24 14:08 33.39350 130.21633 11450 ft 338 kts 208°
2026-04-24 14:08 33.37291 130.20368 11304 ft 329 kts 208°
2026-04-24 14:08 33.35249 130.19116 11173 ft 330 kts 208°
2026-04-24 14:08 33.33211 130.17962 11009 ft 319 kts 199°
2026-04-24 14:09 33.31053 130.17590 10746 ft 310 kts 182°
2026-04-24 14:09 33.28926 130.17501 10482 ft 302 kts 182°
2026-04-24 14:09 33.26853 130.17398 10217 ft 295 kts 183°
2026-04-24 14:09 33.24824 130.17283 9978 ft 288 kts 183°
2026-04-24 14:10 33.23521 130.17205 9884 ft 281 kts 183°
2026-04-24 14:10 33.20941 130.17046 9449 ft 277 kts 183°
2026-04-24 14:10 33.19028 130.16925 9186 ft 274 kts 182°
2026-04-24 14:10 33.17117 130.16803 8939 ft 276 kts 182°
2026-04-24 14:11 33.15199 130.16680 8690 ft 277 kts 182°
2026-04-24 14:11 33.13276 130.16558 8444 ft 277 kts 182°
2026-04-24 14:11 33.09447 130.16315 7952 ft 274 kts 182°
2026-04-24 14:12 33.07556 130.16195 7711 ft 270 kts 182°
2026-04-24 14:12 33.05695 130.16076 7467 ft 267 kts 182°
2026-04-24 14:12 33.03837 130.15958 7238 ft 268 kts 182°
2026-04-24 14:12 33.01977 130.15840 6999 ft 268 kts 182°
2026-04-24 14:13 33.00115 130.15722 6764 ft 268 kts 182°
2026-04-24 14:13 32.98252 130.15604 6510 ft 268 kts 182°
2026-04-24 14:13 32.96391 130.15485 6278 ft 268 kts 182°
2026-04-24 14:13 32.94527 130.15368 6023 ft 268 kts 182°
2026-04-24 14:14 32.92671 130.15250 5781 ft 267 kts 181°
2026-04-24 14:14 32.90847 130.15133 5536 ft 266 kts 181°
2026-04-24 14:14 32.87192 130.14904 5067 ft 261 kts 182°
2026-04-24 14:15 32.85389 130.14793 4834 ft 257 kts 181°
2026-04-24 14:15 32.83621 130.14683 4596 ft 252 kts 182°
2026-04-24 14:15 32.81886 130.14575 4366 ft 248 kts 181°
2026-04-24 14:15 32.80214 130.14172 4124 ft 248 kts 206°
2026-04-24 14:16 32.78904 130.12869 3929 ft 245 kts 225°
2026-04-24 14:16 32.77849 130.11302 3694 ft 244 kts 243°
2026-04-24 14:16 32.77545 130.09351 3480 ft 241 kts 275°
2026-04-24 14:17 32.78410 130.05644 3091 ft 227 kts 297°
2026-04-24 14:17 32.79400 130.04333 2949 ft 207 kts 331°
2026-04-24 14:17 32.81549 130.02173 2430 ft 200 kts 320°
2026-04-24 14:18 32.82565 130.01102 2173 ft 191 kts 324°
2026-04-24 14:18 32.83564 130.00067 1935 ft 191 kts 322°
2026-04-24 14:18 32.84550 129.99014 1662 ft 188 kts 321°
2026-04-24 14:18 32.85460 129.98033 1410 ft 170 kts 321°
2026-04-24 14:19 32.86029 129.97421 1294 ft 157 kts 321°
2026-04-24 14:19 32.87086 129.96289 1003 ft 154 kts 320°
2026-04-24 14:19 32.87879 129.95438 796 ft 153 kts 319°
2026-04-24 14:19 32.88666 129.94589 588 ft 153 kts 318°
2026-04-24 14:20 32.89447 129.93743 430 ft 151 kts 317°
2026-04-24 14:20 32.90225 129.92903 219 ft 151 kts 318°
2026-04-24 14:20 32.90995 129.92081 19 ft 146 kts 318°
2026-04-24 14:20 32.91442 129.91606 20 ft 109 kts 318°
2026-04-24 14:21 32.91908 129.91124 18 ft 30 kts 331°
2026-04-24 14:21 32.92028 129.91201 15 ft 16 kts 71°
2026-04-24 14:21 32.91977 129.91313 11 ft 17 kts 135°
2026-04-24 14:21 32.91889 129.91412 12 ft 19 kts 138°
2026-04-24 14:22 32.91791 129.91515 12 ft 18 kts 139°
2026-04-24 14:22 32.91698 129.91615 13 ft 18 kts 137°
2026-04-24 14:22 32.91522 129.91807 16 ft 17 kts 137°
2026-04-24 14:23 32.91465 129.91869 17 ft 16 kts 137°
2026-04-24 14:23 32.91382 129.91966 16 ft 7 kts 102°
2026-04-24 14:23 32.91410 129.92008 16 ft 7 kts 43°
2026-04-24 14:23 32.91444 129.92049 17 ft 7 kts 47°
2026-04-24 14:24 32.91468 129.92081 18 ft 3 kts 47°
2026-04-24 14:24 32.91472 129.92086 18 ft 0 kts 47°